Flag Weather past 2 weeks in Almaty, Kazakhstan

Now
16 °F

Ice fog.


Feels Like: 16 °F
Forecast: 13 / 38 °F
Wind: 1 mph from North

Location: Almaty Airport

Current Time: Nov 28, 2014 at 8:04:46 AM

Latest Report: Nov 28, 2014 at 7:30 AM


Visibility: 3 mi

Pressure: 30.39 "Hg

Humidity: 73%

Dew point: 9 °F

Location of AlmatyLocation

Historic Weather in Almaty — Graph

°F

Almaty temperature yesterday

Maximum temperature yesterday: 19 °F (at 4:00 PM)
Minimum temperature yesterday: 9 °F (at 5:30 AM)
Average temperature yesterday: 16 °F

Past Weeks' High & Low Weather Summary

 TemperatureHumidityPressure
High52 °F (Nov 17, 3:00 PM)100% (Nov 23, 2:00 PM)30.57 "Hg (Nov 23, 2:00 PM)
Low5 °F (Nov 26, 7:30 AM)29% (Nov 15, 3:00 PM)29.68 "Hg (Nov 24, 6:30 AM)
Average31 °F79%30.26 "Hg
* Reported Nov 13 6:00 AM — Nov 28 6:30 AM, Almaty, Weather by CustomWeather, © 2014

Note: Actual official high and low records may vary slightly from our data, if they occured in-between our weather recording intervals... More about our weather records

Advertising

Almaty weather history for previous 24 hours

 ConditionsComfort  
Time TempWeatherWind HumidityBarometerVisibility
6:30 AM
Nov 28
14 °FPassing clouds.3 mph73%30.36 "HgN/A
6:00 AM14 °FPassing clouds.3 mph67%30.36 "HgN/A
5:30 AM14 °FPassing clouds.3 mph67%30.36 "HgN/A
5:00 AM12 °FPassing clouds.3 mph79%30.33 "HgN/A
4:30 AM12 °FPassing clouds.3 mph79%30.33 "HgN/A
4:00 AM14 °FPassing clouds.6 mph73%30.33 "HgN/A
3:30 AM16 °FIce fog.3 mph86%30.30 "Hg2 mi
3:00 AM16 °FIce fog.1 mph86%30.30 "Hg2 mi
2:30 AM18 °FIce fog.3 mph86%30.27 "Hg2 mi
2:00 AM18 °FIce fog.No wind86%30.27 "Hg2 mi
1:30 AM18 °FIce fog.3 mph86%30.27 "Hg1 mi
1:00 AM18 °FIce fog.1 mph86%30.27 "Hg2 mi
12:30 AM18 °FIce fog.1 mph86%30.27 "Hg2 mi
12:00 AM18 °FIce fog.No wind86%30.27 "Hg2 mi
11:30 PM
Nov 27
19 °FIce fog.1 mph86%30.27 "Hg1 mi
11:00 PM19 °FIce fog.1 mph86%30.27 "Hg1 mi
10:30 PM19 °FIce fog.6 mph86%30.27 "Hg1 mi
10:00 PM19 °FIce fog.1 mph86%30.27 "Hg1 mi
9:30 PM19 °FIce fog.1 mph86%30.24 "Hg3 mi
9:00 PM19 °FIce fog.3 mph86%30.24 "Hg3 mi
8:30 PM19 °FIce fog.1 mph86%30.24 "Hg3 mi
8:00 PM19 °FIce fog.No wind86%30.24 "Hg3 mi
7:30 PM19 °FIce fog.3 mph86%30.21 "Hg3 mi
7:00 PM19 °FIce fog.3 mph86%30.21 "Hg3 mi
6:30 PM19 °FIce fog.3 mph86%30.21 "Hg2 mi
6:00 PM19 °FIce fog.1 mph86%30.21 "Hg3 mi
5:30 PM19 °FIce fog.1 mph86%30.18 "Hg3 mi
5:00 PM19 °FIce fog.1 mph86%30.18 "Hg3 mi
4:30 PM19 °FIce fog.3 mph86%30.15 "Hg3 mi
4:00 PM19 °FIce fog.3 mph86%30.15 "Hg3 mi
3:30 PM18 °FIce fog.3 mph93%30.15 "Hg3 mi
3:00 PM18 °FIce fog.6 mph86%30.12 "Hg3 mi
2:30 PM16 °FIce fog.6 mph93%30.12 "Hg3 mi
2:00 PM18 °FIce fog.6 mph86%30.09 "Hg3 mi
1:30 PM18 °FIce fog.6 mph86%30.09 "Hg3 mi
1:00 PM18 °FIce fog.6 mph86%30.09 "Hg3 mi
12:30 PM18 °FIce fog.6 mph86%30.09 "Hg3 mi
12:00 PM18 °FIce fog.8 mph86%30.07 "Hg3 mi
11:30 AM18 °FIce fog.8 mph93%30.07 "Hg3 mi
11:00 AM18 °FIce fog.3 mph86%30.07 "Hg3 mi
10:30 AM16 °FIce fog.6 mph86%30.07 "Hg3 mi
10:00 AM12 °FIce fog.3 mph85%30.04 "Hg2 mi
9:30 AM12 °FIce fog.3 mph85%30.04 "Hg2 mi
9:00 AM12 °FIce fog.3 mph85%30.04 "Hg3 mi
8:30 AM10 °FIce fog.3 mph85%30.04 "Hg3 mi
8:00 AM12 °FIce fog.3 mph85%30.01 "Hg3 mi
Weather by CustomWeather, © 2014

See weather overviewHow to use our weather pages